Content
SEND FEEDBACK

Daily
Averages
Monthly
Summary
Philippines

QUEZON CITY, PHILIPPINES


Home > Asia > Philippines
Elevation: 151 feet     Latitude: 14 39N     Longitude: 121 03E

WEATHER
 
SELECT A DAY
Number of Records: 172,785;   Date Range: 7/1/96 - 9/20/14
 
SHARE

PRINT THIS DATA

[ ← Previous Day ]
WEATHER ALMANAC - FEBRUARY 5, 2013
[ Next Day → ]
[ °C ]   °F
Weather ElementAverageHighLow
Temperature80.5 °F89.6 °F (2:00 pm)73.4 °F (6:00 am)
Dewpoint68.8 °F72 °F (2:00 am)66.2 °F (3:00 pm)
Humidity66.7 %83 % (3:00 am)41 % (2:00 pm)
Barometer29.96 in30.01 in (8:00 am)29.89 in (3:00 pm)
Wind Speed6.6 mph13.8 mph (4:00 pm)
Weather ElementAverage
Visibility6.1 mi
Wind DirectionESE (115.7 °)

Weather ElementTotal
Precipitation---
Cooling Degree Days16.5 (Base 65)
Growing Degree Days31.5 (Base 50)
Averaged from 31 records on February 5, 2013
WEATHER CONDITIONS BREAKOUT
WIND DIRECTION BREAKOUT
WEATHER BY HOUR - FEBRUARY 5, 2013
[ °C ]   °F
Local TimeTemperatureDewpointHumidityBarometerVisibilityWind DirectionWind SpeedGust SpeedPrecipitationEventsConditions
1:00 AM78.8 °F69.8 °F74 %29.98 in6.2 miESE (110°)5.8 mphPartly Cloudy
2:00 AM77.0 °F72.0 °F81 %29.99 in6.0 miEast (100°)4.5 mphHaze
2:00 AM77.0 °F69.8 °F78 %29.98 in6.2 miEast (100°)4.6 mphPartly Cloudy
3:00 AM75.2 °F69.8 °F83 %29.95 in6.2 miEast (80°)3.5 mphPartly Cloudy
4:00 AM75.2 °F68.0 °F78 %29.95 in6.2 miVariable2.3 mphPartly Cloudy
5:00 AM74.0 °F68.0 °F78 %29.97 in6.0 miCalmHaze
5:00 AM75.2 °F68.0 °F78 %29.95 in6.2 miCalmPartly Cloudy
6:00 AM73.4 °F68.0 °F83 %29.98 in6.2 miCalmPartly Cloudy
7:00 AM75.2 °F68.0 °F78 %29.98 in6.2 miEast (90°)2.3 mphPartly Cloudy
8:00 AM79.0 °F69.0 °F65 %30.01 in6.0 miENE (60°)6.7 mphHaze
8:00 AM78.8 °F69.8 °F74 %30.01 in6.2 miENE (60°)3.5 mphPartly Cloudy
9:00 AM82.4 °F69.8 °F66 %30.01 in6.2 miEast (90°)2.3 mphPartly Cloudy
10:00 AM84.2 °F68.0 °F58 %30.01 in6.2 miEast (90°)5.8 mphPartly Cloudy
11:00 AM82.0 °F70.0 °F59 %30.01 in6.0 miWest (270°)6.7 mphHaze
11:00 AM82.4 °F69.8 °F66 %30.01 in6.2 miWest (270°)6.9 mphPartly Cloudy
12:00 PM82.4 °F69.8 °F66 %29.98 in6.2 miNW (320°)8.1 mphScattered Clouds
1:00 PM87.8 °F69.8 °F55 %29.95 in6.2 miSE (130°)8.1 mphMostly Cloudy
2:00 PM89.0 °F68.0 °F41 %29.91 in6.0 miESE (120°)8.9 mphHaze
2:00 PM89.6 °F68.0 °F49 %29.92 in6.2 miESE (120°)10.4 mphPartly Cloudy
3:00 PM87.8 °F66.2 °F49 %29.89 in6.2 miSE (130°)12.7 mphPartly Cloudy
4:00 PM86.0 °F66.2 °F51 %29.89 in6.2 miSE (130°)13.8 mphPartly Cloudy
5:00 PM85.0 °F68.0 °F47 %29.90 in6.0 miSE (130°)11.2 mphPartly Cloudy
5:00 PM86.0 °F68.0 °F55 %29.89 in6.2 miSE (130°)11.5 mphScattered Clouds
6:00 PM82.4 °F68.0 °F62 %29.92 in6.2 miESE (120°)11.5 mphScattered Clouds
7:00 PM80.6 °F69.8 °F70 %29.92 in6.2 miESE (110°)9.2 mphPartly Cloudy
8:00 PM79.0 °F69.0 °F64 %29.95 in6.0 miESE (110°)8.9 mphHaze
8:00 PM78.8 °F69.8 °F74 %29.95 in6.2 miESE (110°)9.2 mphPartly Cloudy
9:00 PM78.8 °F68.0 °F69 %29.95 inESE (110°)6.9 mphPartly Cloudy
10:00 PM77.0 °F68.0 °F74 %29.95 in6.2 miESE (120°)6.9 mphPartly Cloudy
11:00 PM77.0 °F69.0 °F69 %29.98 in6.0 miSE (130°)6.7 mphHaze
11:00 PM77.0 °F68.0 °F74 %29.95 in6.2 miSE (130°)6.9 mphPartly Cloudy
Hourly data recorded from RPLL, located miles away from Quezon City, Philippines







STORIES FROM OUR PARTNERS